RYR914 EBCI-LZIB

Flight info

Callsign RYR914
Flight time 1h 36m
Altitude 35000
Route SOPOK Y863 OGLOR DCT EMGOD DCT BOMBI DCT KOMIB L984 KULOK Z715 PEROX DCT ABKIS Z715 PIKIB L620 OMELO DCT VLM DCT BNO/N0284F090 M748 BERVA
Aircraft A320/M-SDE3FGHIRWY/LB1

Departure

Time 2026-05-05 12:00
Airport Brussels South Charleroi Airport (EBCI)

Arrival

Time 2026-05-05 13:36
Airport M. R. Štefánik Airport (LZIB)
Time Latitude Longitude Altitude Speed Heading
2026-05-05 11:31 50.46839 4.46985 613 ft 0 kts 335°
2026-05-05 11:52 50.46837 4.46987 612 ft 2 kts 336°
2026-05-05 11:53 50.46820 4.46998 620 ft 3 kts 345°
2026-05-05 11:53 50.46801 4.47003 620 ft 3 kts
2026-05-05 11:53 50.46784 4.46996 627 ft 3 kts 44°
2026-05-05 11:53 50.46777 4.46985 627 ft 0 kts 65°
2026-05-05 11:56 50.46782 4.47000 627 ft 5 kts 65°
2026-05-05 11:56 50.46794 4.47044 612 ft 4 kts 65°
2026-05-05 11:56 50.46806 4.47084 616 ft 5 kts 65°
2026-05-05 11:56 50.46823 4.47140 614 ft 6 kts 65°
2026-05-05 11:57 50.46845 4.47219 618 ft 8 kts 66°
2026-05-05 11:57 50.46850 4.47303 614 ft 13 kts 116°
2026-05-05 11:57 50.46765 4.47382 615 ft 13 kts 155°
2026-05-05 11:57 50.46736 4.47401 620 ft 0 kts 158°
2026-05-05 11:58 50.46733 4.47403 620 ft 3 kts 158°
2026-05-05 11:58 50.46697 4.47427 619 ft 11 kts 156°
2026-05-05 11:59 50.46618 4.47434 619 ft 10 kts 219°
2026-05-05 11:59 50.46589 4.47352 620 ft 7 kts 242°
2026-05-05 11:59 50.46557 4.47246 621 ft 32 kts 246°
2026-05-05 11:59 50.46344 4.46512 622 ft 113 kts 246°
2026-05-05 12:00 50.45928 4.45082 621 ft 172 kts 244°
2026-05-05 12:00 50.45353 4.43212 930 ft 201 kts 249°
2026-05-05 12:00 50.44799 4.41222 1621 ft 196 kts 249°
2026-05-05 12:00 50.44261 4.39287 2302 ft 191 kts 248°
2026-05-05 12:01 50.43719 4.37361 2845 ft 194 kts 246°
2026-05-05 12:01 50.43176 4.35456 3508 ft 189 kts 246°
2026-05-05 12:01 50.42643 4.33595 4109 ft 184 kts 246°
2026-05-05 12:01 50.42086 4.31645 4189 ft 215 kts 245°
2026-05-05 12:02 50.41456 4.29445 4762 ft 220 kts 245°
2026-05-05 12:02 50.40821 4.27246 5412 ft 221 kts 247°
2026-05-05 12:02 50.40526 4.24932 6019 ft 222 kts 277°
2026-05-05 12:02 50.41013 4.22652 6514 ft 224 kts 308°
2026-05-05 12:03 50.42182 4.20885 6563 ft 252 kts 333°
2026-05-05 12:03 50.43796 4.19651 7037 ft 263 kts 338°
2026-05-05 12:03 50.45531 4.18542 7625 ft 274 kts 347°
2026-05-05 12:03 50.47424 4.18116 8239 ft 276 kts
2026-05-05 12:04 50.49328 4.18493 8862 ft 277 kts 17°
2026-05-05 12:04 50.51114 4.19611 9497 ft 277 kts 30°
2026-05-05 12:04 50.52822 4.21087 9827 ft 281 kts 30°
2026-05-05 12:04 50.54576 4.22605 9892 ft 299 kts 31°
2026-05-05 12:05 50.56447 4.24230 9893 ft 311 kts 30°
2026-05-05 12:05 50.58357 4.25887 9894 ft 323 kts 30°
2026-05-05 12:05 50.60350 4.27612 10111 ft 313 kts 30°
2026-05-05 12:05 50.62152 4.29473 10477 ft 321 kts 39°
2026-05-05 12:06 50.63787 4.31959 10866 ft 333 kts 51°
2026-05-05 12:06 50.65155 4.35039 11264 ft 345 kts 61°
2026-05-05 12:06 50.66206 4.38494 11633 ft 356 kts 66°
2026-05-05 12:06 50.67232 4.42045 12008 ft 363 kts 66°
2026-05-05 12:07 50.68306 4.45739 12400 ft 367 kts 66°
2026-05-05 12:07 50.69360 4.49360 12786 ft 369 kts 66°
2026-05-05 12:07 50.70213 4.53201 13181 ft 372 kts 80°
2026-05-05 12:07 50.70286 4.57270 13580 ft 373 kts 98°
2026-05-05 12:08 50.69591 4.61216 13953 ft 376 kts 109°
2026-05-05 12:08 50.68717 4.65077 14307 ft 378 kts 109°
2026-05-05 12:08 50.67810 4.69019 14658 ft 381 kts 110°
2026-05-05 12:08 50.66898 4.72959 15031 ft 382 kts 110°
2026-05-05 12:09 50.65989 4.76893 15399 ft 384 kts 110°
2026-05-05 12:09 50.65070 4.80868 15796 ft 388 kts 110°
2026-05-05 12:09 50.64140 4.84883 16183 ft 389 kts 110°
2026-05-05 12:09 50.63207 4.88915 16572 ft 391 kts 110°
2026-05-05 12:10 50.62270 4.92956 16960 ft 394 kts 110°
2026-05-05 12:10 50.61329 4.97014 17354 ft 397 kts 110°
2026-05-05 12:10 50.60378 5.01108 17760 ft 399 kts 110°
2026-05-05 12:10 50.59421 5.05226 18152 ft 401 kts 111°
2026-05-05 12:11 50.58461 5.09350 18504 ft 404 kts 111°
2026-05-05 12:11 50.57488 5.13516 18854 ft 407 kts 111°
2026-05-05 12:11 50.56507 5.17700 19212 ft 410 kts 111°
2026-05-05 12:11 50.55518 5.21915 19571 ft 412 kts 111°
2026-05-05 12:12 50.54521 5.26164 19944 ft 414 kts 111°
2026-05-05 12:12 50.53518 5.30415 20316 ft 417 kts 111°
2026-05-05 12:12 50.52507 5.34699 20697 ft 419 kts 111°
2026-05-05 12:12 50.51500 5.38966 21061 ft 421 kts 112°
2026-05-05 12:13 50.50478 5.43286 21449 ft 423 kts 112°
2026-05-05 12:13 50.49443 5.47648 21844 ft 426 kts 112°
2026-05-05 12:13 50.48407 5.52001 22237 ft 428 kts 112°
2026-05-05 12:13 50.47361 5.56390 22641 ft 430 kts 112°
2026-05-05 12:14 50.46312 5.60785 23031 ft 431 kts 112°
2026-05-05 12:14 50.45254 5.65206 23435 ft 433 kts 113°
2026-05-05 12:14 50.44194 5.69631 23788 ft 434 kts 113°
2026-05-05 12:14 50.43129 5.74067 24141 ft 434 kts 113°
2026-05-05 12:15 50.42060 5.78507 24486 ft 436 kts 113°
2026-05-05 12:15 50.40984 5.82962 24851 ft 437 kts 113°
2026-05-05 12:15 50.39906 5.87418 25214 ft 437 kts 113°
2026-05-05 12:15 50.38823 5.91874 25574 ft 438 kts 114°
2026-05-05 12:16 50.37734 5.96342 25947 ft 439 kts 114°
2026-05-05 12:16 50.36657 6.00757 26306 ft 440 kts 114°
2026-05-05 12:16 50.35564 6.05236 26693 ft 440 kts 114°
2026-05-05 12:16 50.34470 6.09727 27070 ft 441 kts 114°
2026-05-05 12:17 50.33377 6.14215 27462 ft 441 kts 114°
2026-05-05 12:17 50.32279 6.18698 27864 ft 442 kts 114°
2026-05-05 12:17 50.31174 6.23193 28266 ft 443 kts 114°
2026-05-05 12:17 50.30067 6.27686 28661 ft 443 kts 115°
2026-05-05 12:18 50.28954 6.32184 29076 ft 442 kts 115°
2026-05-05 12:18 50.27844 6.36667 29509 ft 442 kts 115°
2026-05-05 12:18 50.26737 6.41134 29932 ft 441 kts 115°
2026-05-05 12:18 50.25626 6.45613 30282 ft 441 kts 115°
2026-05-05 12:19 50.24520 6.50065 30651 ft 440 kts 115°
2026-05-05 12:19 50.23411 6.54520 31025 ft 438 kts 116°
2026-05-05 12:19 50.22310 6.58937 31412 ft 436 kts 116°
2026-05-05 12:19 50.21387 6.63470 31801 ft 440 kts 107°
2026-05-05 12:20 50.20927 6.68213 32204 ft 445 kts 98°
2026-05-05 12:20 50.20833 6.73055 32612 ft 446 kts 96°
2026-05-05 12:20 50.20756 6.77825 33014 ft 445 kts 97°
2026-05-05 12:20 50.20669 6.82707 33436 ft 444 kts 97°
2026-05-05 12:21 50.20578 6.87510 33853 ft 442 kts 97°
2026-05-05 12:21 50.20489 6.92244 34194 ft 440 kts 98°
2026-05-05 12:21 50.20398 6.97021 34558 ft 438 kts 98°
2026-05-05 12:21 50.20304 7.01766 34806 ft 439 kts 97°
2026-05-05 12:22 50.20096 7.11417 34867 ft 451 kts 97°
2026-05-05 12:22 50.19876 7.21318 34864 ft 462 kts 97°
2026-05-05 12:23 50.19658 7.31379 34860 ft 465 kts 98°
2026-05-05 12:23 50.18891 7.41326 34857 ft 462 kts 103°
2026-05-05 12:24 50.18002 7.51261 34846 ft 463 kts 103°
2026-05-05 12:24 50.17106 7.61211 34847 ft 463 kts 104°
2026-05-05 12:25 50.16195 7.71129 34867 ft 461 kts 104°
2026-05-05 12:25 50.15284 7.81018 34854 ft 460 kts 104°
2026-05-05 12:26 50.14367 7.90894 34860 ft 460 kts 104°
2026-05-05 12:26 50.13446 8.00687 34865 ft 460 kts 104°
2026-05-05 12:27 50.12510 8.10553 34868 ft 460 kts 104°
2026-05-05 12:27 50.11565 8.20425 34876 ft 460 kts 104°
2026-05-05 12:28 50.10612 8.30283 34854 ft 461 kts 104°
2026-05-05 12:28 50.09640 8.40160 34848 ft 462 kts 104°
2026-05-05 12:29 50.08670 8.50050 34827 ft 463 kts 104°
2026-05-05 12:29 50.07694 8.59946 34834 ft 463 kts 104°
2026-05-05 12:30 50.06703 8.69856 34840 ft 463 kts 104°
2026-05-05 12:30 50.05770 8.79797 34845 ft 467 kts 99°
2026-05-05 12:31 50.05836 8.89967 34850 ft 471 kts 93°
2026-05-05 12:31 50.06018 9.00167 34852 ft 471 kts 94°
2026-05-05 12:32 50.06174 9.10370 34854 ft 471 kts 94°
2026-05-05 12:32 50.06317 9.20525 34840 ft 472 kts 94°
2026-05-05 12:33 50.06455 9.30745 34837 ft 473 kts 93°
2026-05-05 12:33 50.06595 9.40996 34840 ft 474 kts 93°
2026-05-05 12:34 50.06720 9.51259 34849 ft 474 kts 94°
2026-05-05 12:34 50.06835 9.61517 34852 ft 474 kts 94°
2026-05-05 12:35 50.06929 9.70067 34834 ft 475 kts 94°
2026-05-05 12:35 50.07028 9.80332 34838 ft 475 kts 94°
2026-05-05 12:36 50.07112 9.90623 34845 ft 475 kts 94°
2026-05-05 12:36 50.07195 10.00915 34847 ft 476 kts 94°
2026-05-05 12:37 50.07266 10.11214 34833 ft 476 kts 94°
2026-05-05 12:37 50.07323 10.21520 34834 ft 476 kts 94°
2026-05-05 12:38 50.07376 10.31824 34845 ft 476 kts 94°
2026-05-05 12:38 50.07428 10.42144 34840 ft 476 kts 94°
2026-05-05 12:39 50.07474 10.52448 34847 ft 476 kts 94°
2026-05-05 12:39 50.07507 10.62762 34834 ft 476 kts 94°
2026-05-05 12:40 50.07527 10.73012 34841 ft 477 kts 94°
2026-05-05 12:40 50.07535 10.83332 34844 ft 477 kts 94°
2026-05-05 12:41 50.07532 10.93642 34844 ft 477 kts 94°
2026-05-05 12:41 50.07521 11.03963 34828 ft 477 kts 94°
2026-05-05 12:42 50.07502 11.14357 34836 ft 477 kts 94°
2026-05-05 12:42 50.07467 11.24618 34833 ft 477 kts 94°
2026-05-05 12:43 50.07431 11.34938 34839 ft 477 kts 94°
2026-05-05 12:43 50.07389 11.45285 34837 ft 477 kts 94°
2026-05-05 12:44 50.07622 11.55623 34845 ft 481 kts 82°
2026-05-05 12:44 50.09755 11.65490 34848 ft 485 kts 62°
2026-05-05 12:45 50.13823 11.73876 34855 ft 486 kts 46°
2026-05-05 12:45 50.18405 11.81660 34861 ft 487 kts 52°
2026-05-05 12:46 50.22072 11.90509 34867 ft 487 kts 59°
2026-05-05 12:46 50.25602 11.99533 34870 ft 487 kts 59°
2026-05-05 12:47 50.29273 12.08453 34867 ft 487 kts 56°
2026-05-05 12:47 50.33154 12.17139 34871 ft 486 kts 54°
2026-05-05 12:48 50.36604 12.26138 34850 ft 485 kts 62°
2026-05-05 12:48 50.39757 12.35479 34849 ft 485 kts 63°
2026-05-05 12:49 50.42865 12.44850 34854 ft 484 kts 63°
2026-05-05 12:49 50.45981 12.54228 34850 ft 484 kts 63°
2026-05-05 12:50 50.49106 12.63589 34844 ft 484 kts 62°
2026-05-05 12:50 50.52211 12.72951 34853 ft 483 kts 63°
2026-05-05 12:51 50.55298 12.82331 34851 ft 483 kts 63°
2026-05-05 12:51 50.58381 12.91701 34851 ft 482 kts 63°
2026-05-05 12:52 50.61460 13.01088 34868 ft 482 kts 63°
2026-05-05 12:52 50.64820 13.10238 34847 ft 484 kts 57°
2026-05-05 12:53 50.68473 13.19168 34832 ft 484 kts 57°
2026-05-05 12:53 50.72099 13.28067 34842 ft 485 kts 57°
2026-05-05 12:54 50.77546 13.41539 34852 ft 485 kts 57°
2026-05-05 12:55 50.81174 13.50556 34856 ft 486 kts 57°
2026-05-05 12:55 50.84777 13.59619 34846 ft 488 kts 61°
2026-05-05 12:56 50.87090 13.69651 34847 ft 486 kts 81°
2026-05-05 12:56 50.87272 13.80262 34845 ft 480 kts 101°
2026-05-05 12:57 50.85597 13.90342 34838 ft 474 kts 115°
2026-05-05 12:57 50.82334 13.99226 34837 ft 464 kts 134°
2026-05-05 12:58 50.77637 14.05994 34837 ft 453 kts 152°
2026-05-05 12:58 50.72280 14.11195 34838 ft 452 kts 153°
2026-05-05 12:59 50.66903 14.16341 34813 ft 453 kts 153°
2026-05-05 12:59 50.61493 14.21503 34815 ft 454 kts 153°
2026-05-05 13:00 50.53372 14.29249 34814 ft 455 kts 153°
2026-05-05 13:01 50.42515 14.39592 34814 ft 456 kts 153°
2026-05-05 13:01 50.37117 14.44691 34821 ft 456 kts 153°
2026-05-05 13:02 50.31674 14.49826 34822 ft 456 kts 153°
2026-05-05 13:02 50.26234 14.54951 34827 ft 456 kts 153°
2026-05-05 13:03 50.20801 14.60051 34857 ft 456 kts 153°
2026-05-05 13:03 50.15353 14.65135 34858 ft 455 kts 153°
2026-05-05 13:04 50.09917 14.70205 34856 ft 455 kts 153°
2026-05-05 13:04 50.04477 14.75271 34847 ft 455 kts 153°
2026-05-05 13:05 49.99036 14.80319 34834 ft 456 kts 153°
2026-05-05 13:05 49.93583 14.85379 34829 ft 456 kts 153°
2026-05-05 13:06 49.88127 14.90428 34821 ft 456 kts 153°
2026-05-05 13:06 49.82667 14.95455 34824 ft 456 kts 153°
2026-05-05 13:07 49.77246 15.00422 34826 ft 456 kts 153°
2026-05-05 13:07 49.72017 15.06002 34813 ft 462 kts 139°
2026-05-05 13:08 49.68054 15.13862 34812 ft 469 kts 120°
2026-05-05 13:08 49.65095 15.22812 34799 ft 464 kts 119°
2026-05-05 13:09 49.63624 15.27233 34319 ft 464 kts 120°
2026-05-05 13:09 49.62136 15.31680 33557 ft 467 kts 120°
2026-05-05 13:09 49.60644 15.36129 32741 ft 467 kts 120°
2026-05-05 13:09 49.59148 15.40590 31942 ft 468 kts 119°
2026-05-05 13:10 49.57656 15.45046 31175 ft 468 kts 119°
2026-05-05 13:10 49.56162 15.49506 30412 ft 469 kts 119°
2026-05-05 13:10 49.54665 15.53973 29631 ft 470 kts 119°
2026-05-05 13:10 49.53158 15.58462 28799 ft 472 kts 119°
2026-05-05 13:11 49.51649 15.62952 27983 ft 473 kts 118°
2026-05-05 13:11 49.50131 15.67454 27191 ft 475 kts 119°
2026-05-05 13:11 49.48600 15.71963 26416 ft 477 kts 119°
2026-05-05 13:11 49.47056 15.76502 25668 ft 479 kts 119°
2026-05-05 13:12 49.45508 15.81056 24928 ft 481 kts 119°
2026-05-05 13:12 49.43954 15.85620 24203 ft 483 kts 120°
2026-05-05 13:12 49.42389 15.90211 23507 ft 484 kts 118°
2026-05-05 13:12 49.40852 15.94718 22724 ft 480 kts 120°
2026-05-05 13:13 49.39315 15.99214 21931 ft 475 kts 120°
2026-05-05 13:13 49.37783 16.03683 21180 ft 470 kts 120°
2026-05-05 13:13 49.36255 16.08129 20474 ft 466 kts 119°
2026-05-05 13:13 49.34755 16.12493 19784 ft 461 kts 119°
2026-05-05 13:14 49.33266 16.16826 19106 ft 457 kts 120°
2026-05-05 13:14 49.31792 16.21115 18445 ft 453 kts 120°
2026-05-05 13:14 49.30326 16.25370 17748 ft 449 kts 119°
2026-05-05 13:14 49.28874 16.29570 17008 ft 443 kts 120°
2026-05-05 13:15 49.27447 16.33684 16283 ft 434 kts 120°
2026-05-05 13:15 49.26043 16.37718 15583 ft 427 kts 121°
2026-05-05 13:15 49.24655 16.41699 14895 ft 421 kts 120°
2026-05-05 13:15 49.23286 16.45624 14219 ft 417 kts 120°
2026-05-05 13:16 49.21930 16.49515 13557 ft 412 kts 121°
2026-05-05 13:16 49.20584 16.53373 12834 ft 409 kts 121°
2026-05-05 13:16 49.19248 16.57194 12110 ft 406 kts 121°
2026-05-05 13:16 49.17936 16.60924 11405 ft 403 kts 121°
2026-05-05 13:17 49.16597 16.64725 10706 ft 398 kts 121°
2026-05-05 13:17 49.15292 16.68359 10033 ft 388 kts 124°
2026-05-05 13:17 49.13644 16.71456 9345 ft 363 kts 136°
2026-05-05 13:17 49.11981 16.74157 9067 ft 337 kts 136°
2026-05-05 13:18 49.10406 16.76707 8991 ft 321 kts 136°
2026-05-05 13:18 49.08912 16.79118 9001 ft 304 kts 136°
2026-05-05 13:18 49.07491 16.81405 9005 ft 289 kts 136°
2026-05-05 13:18 49.06570 16.82884 9004 ft 282 kts 137°
2026-05-05 13:19 49.05219 16.85046 9002 ft 280 kts 137°
2026-05-05 13:19 49.03884 16.87185 9004 ft 278 kts 136°
2026-05-05 13:19 49.02549 16.89323 8990 ft 279 kts 137°
2026-05-05 13:19 49.01212 16.91461 8986 ft 278 kts 137°
2026-05-05 13:20 48.99893 16.93569 8992 ft 278 kts 137°
2026-05-05 13:20 48.98560 16.95699 8967 ft 279 kts 139°
2026-05-05 13:20 48.97227 16.97828 8887 ft 277 kts 137°
2026-05-05 13:20 48.95897 16.99951 8811 ft 278 kts 137°
2026-05-05 13:21 48.94548 17.02046 8730 ft 277 kts 142°
2026-05-05 13:21 48.93042 17.03845 8659 ft 273 kts 147°
2026-05-05 13:21 48.91528 17.05571 8580 ft 271 kts 149°
2026-05-05 13:21 48.89942 17.07130 8511 ft 270 kts 152°
2026-05-05 13:22 48.88330 17.08575 8429 ft 269 kts 153°
2026-05-05 13:22 48.86696 17.09959 8336 ft 267 kts 155°
2026-05-05 13:22 48.85073 17.11309 8240 ft 265 kts 155°
2026-05-05 13:22 48.83454 17.12653 8133 ft 265 kts 155°
2026-05-05 13:23 48.81845 17.13998 8035 ft 264 kts 154°
2026-05-05 13:23 48.80235 17.15347 7934 ft 266 kts 154°
2026-05-05 13:23 48.78619 17.16704 7754 ft 264 kts 154°
2026-05-05 13:23 48.77005 17.18059 7537 ft 264 kts 154°
2026-05-05 13:24 48.75418 17.19395 7314 ft 264 kts 155°
2026-05-05 13:24 48.73816 17.20739 7094 ft 263 kts 154°
2026-05-05 13:24 48.72213 17.22079 6874 ft 264 kts 154°
2026-05-05 13:24 48.70603 17.23424 6655 ft 264 kts 154°
2026-05-05 13:25 48.68998 17.24767 6439 ft 264 kts 154°
2026-05-05 13:25 48.67400 17.26109 6220 ft 263 kts 154°
2026-05-05 13:25 48.65804 17.27454 5994 ft 263 kts 154°
2026-05-05 13:25 48.64209 17.28795 5803 ft 261 kts 154°
2026-05-05 13:26 48.62626 17.30122 5593 ft 259 kts 154°
2026-05-05 13:26 48.61043 17.31443 5395 ft 259 kts 154°
2026-05-05 13:26 48.59472 17.32753 5196 ft 258 kts 154°
2026-05-05 13:26 48.57902 17.34058 4993 ft 256 kts 154°
2026-05-05 13:27 48.56342 17.35353 4801 ft 255 kts 154°
2026-05-05 13:27 48.54796 17.36640 4601 ft 254 kts 154°
2026-05-05 13:27 48.53261 17.37924 4403 ft 250 kts 154°
2026-05-05 13:27 48.51736 17.39196 4197 ft 254 kts 154°
2026-05-05 13:28 48.50182 17.40492 3997 ft 255 kts 154°
2026-05-05 13:28 48.48626 17.41787 3797 ft 256 kts 154°
2026-05-05 13:28 48.47065 17.43081 3596 ft 255 kts 154°
2026-05-05 13:28 48.45511 17.44368 3401 ft 255 kts 154°
2026-05-05 13:29 48.43964 17.45650 3194 ft 252 kts 154°
2026-05-05 13:29 48.42433 17.46917 3005 ft 250 kts 154°
2026-05-05 13:29 48.40920 17.48169 2793 ft 246 kts 154°
2026-05-05 13:29 48.39356 17.49086 2603 ft 238 kts 171°
2026-05-05 13:30 48.37746 17.49189 2509 ft 226 kts 188°
2026-05-05 13:30 48.36288 17.48573 2508 ft 211 kts 203°
2026-05-05 13:30 48.35069 17.47407 2504 ft 209 kts 219°
2026-05-05 13:30 48.34012 17.45890 2522 ft 210 kts 221°
2026-05-05 13:31 48.32983 17.44393 2510 ft 208 kts 221°
2026-05-05 13:31 48.31914 17.42840 2512 ft 216 kts 220°
2026-05-05 13:31 48.30873 17.41324 2513 ft 201 kts 220°
2026-05-05 13:31 48.29913 17.39927 2553 ft 184 kts 218°
2026-05-05 13:32 48.29028 17.38642 2515 ft 170 kts 218°
2026-05-05 13:32 48.28213 17.37460 2507 ft 157 kts 218°
2026-05-05 13:32 48.27461 17.36372 2495 ft 144 kts 219°
2026-05-05 13:32 48.26760 17.35359 2503 ft 139 kts 218°
2026-05-05 13:33 48.26069 17.34360 2499 ft 137 kts 218°
2026-05-05 13:33 48.25414 17.33414 2406 ft 137 kts 218°
2026-05-05 13:33 48.24735 17.32432 2266 ft 136 kts 218°
2026-05-05 13:33 48.24054 17.31448 2095 ft 135 kts 217°
2026-05-05 13:34 48.23380 17.30473 1930 ft 135 kts 216°
2026-05-05 13:34 48.22695 17.29484 1746 ft 136 kts 217°
2026-05-05 13:34 48.22018 17.28506 1574 ft 137 kts 218°
2026-05-05 13:34 48.21336 17.27519 1389 ft 135 kts 219°
2026-05-05 13:35 48.20651 17.26532 1217 ft 140 kts 216°
2026-05-05 13:35 48.19972 17.25550 1038 ft 132 kts 214°
2026-05-05 13:35 48.19301 17.24583 842 ft 136 kts 213°
2026-05-05 13:35 48.18632 17.23608 678 ft 130 kts 212°
2026-05-05 13:36 48.18017 17.22723 507 ft 118 kts 214°
2026-05-05 13:36 48.17496 17.22013 434 ft 67 kts 223°
2026-05-05 13:36 48.17343 17.21789 442 ft 16 kts 227°
2026-05-05 13:36 48.17246 17.21633 438 ft 29 kts 231°
2026-05-05 13:37 48.17091 17.21398 437 ft 32 kts 224°
2026-05-05 13:37 48.16926 17.21163 425 ft 25 kts 226°
2026-05-05 13:37 48.16933 17.21019 435 ft 14 kts 317°
2026-05-05 13:37 48.16939 17.21011 426 ft 0 kts 316°
2026-05-05 13:39 48.16944 17.21004 430 ft 3 kts 316°
2026-05-05 13:39 48.17008 17.20906 437 ft 29 kts 314°
2026-05-05 13:39 48.17169 17.20649 440 ft 19 kts 298°
2026-05-05 13:39 48.17163 17.20569 444 ft 1 kts 231°
2026-05-05 13:40 48.17151 17.20546 436 ft 4 kts 231°
2026-05-05 13:40 48.17114 17.20491 440 ft 16 kts 222°
2026-05-05 13:40 48.16962 17.20276 440 ft 35 kts 222°
2026-05-05 13:40 48.16798 17.20044 432 ft 24 kts 225°
2026-05-05 13:41 48.16754 17.19975 444 ft 1 kts 226°
2026-05-05 13:41 48.16741 17.19956 432 ft 4 kts 226°
2026-05-05 13:41 48.16735 17.19904 444 ft 7 kts 286°
2026-05-05 13:41 48.16745 17.19883 438 ft 2 kts 306°
2026-05-05 13:42 48.16761 17.19875 439 ft 3 kts
2026-05-05 13:42 48.16763 17.19877 438 ft 0 kts 14°